SCP
-0 -0 -0 -0 -0 -0 -0 -0 -0 0 0 0 0 -0 0 0 0 0 -0 -0 -0 -0 -0 -0 -0 -0 0 0 -0 -0 -0 0 -0 0 -0 -0 0 -0 0 0 0 0 0 0 0 0 0
-0 -0 -0 -0 -0 -0 -0 -0 -0 -0 0 0 0 0 0 0 0 -0 -0 -0 -0 -0 -0 -0 -0 -0 -0 -0 -0 -0 -0 -0 -0 0 0 0 0 0 0 0 0 0 0 0 0 0 0
-0 -0 -0 -0 -0 -0 -0 -0 -0 -0 -0 0 0 0 0 0 0 -0 -0 -0 -0 -0 -0 -0 -0 -0 -0 -0 -0 -0 -0 0 0 -0 0 0 0 -0 -0 -0 -0 -0 -0 -0 0 0 0
-0 -0 -0 -0 -0 -0 -0 -0 -0 -0 -0 0 0 0 0 0 0 -0 -0 -0 -0 -0 -0 -0 -0 -0 -0 0 -0 0 0 -0 0 -0 0 0 0 0 0 0 0 -0 -0 -0 0 0 0
-0 -0 -0 -0 -0 -0 -0 -0 -0 -0 -0 0 0 0 0 0 0 -0 -0 -0 -0 -0 -0 -0 -0 -0 -0 -0 0 0 0 0 0 0 0 0 -0 0 0 -0 0 0 0 0 0 0 0
-0 -0 -0 -0 -0 -0 -0 -0 -0 -0 -0 0 0 0 0 0 0 0 -0 0 0 0 -0 -0 -0 -0 0 0 0 0 0 0 0 0 0 0 0 0 0 -0 0 0 0 0 0 0 0
-0 -0 -0 -0 -0 -0 -0 -0 -0 -0 -0 -0 0 0 0 0 0 0 0 -0 -0 -0 -0 0 0 0 0 0 -0 0 0 0 0 0 0 0 0 0 0 0 0 0 0 0 0 0 0
-0 -0 -0 -0 -0 -0 -0 -0 -0 -0 -0 -0 0 0 0 0 0 0 0 0 0 0 0 0 0 0 -0 -0 0 0 0 0 0 0 0 0 0 0 0 0 0 0 0 0 0 0 0
-0 -0 -0 -0 -0 -0 -0 -0 -0 -0 -0 -0 -0 0 0 0 0 0 0 0 0 -0 0 0 0 0 0 -0 0 0 -0 0 0 0 0 0 0 0 0 0 0 0 0 0 0 0 0
0 -0 -0 -0 -0 -0 -0 -0 -0 -0 -0 -0 -0 -0 0 0 0 0 0 0 0 -0 0 0 0 0 -0 -0 0 -0 -0 -0 0 0 0 0 0 0 0 0 0 0 0 0 0 0 0
0 0 -0 -0 -0 -0 -0 -0 -0 -0 -0 -0 -0 -0 0 0 0 0 0 0 0 0 0 0 0 -0 -0 -0 0 0 -0 -0 0 0 -0 0 0 0 0 0 0 0 0 0 0 0 0
0 0 -0 -0 -0 -0 -0 -0 -0 -0 -0 -0 -0 0 0 0 0 0 0 0 0 0 0 0 0 0 0 0 0 0 0 0 0 0 0 0 0 0 0 0 0 0 0 0 0 0 0
0 0 0 0 -0 -0 -0 -0 -0 -0 -0 -0 -0 0 0 0 0 0 0 0 0 0 0 0 0 0 0 0 0 0 0 0 0 0 0 0 0 0 0 -0 0 0 0 0 0 0 0
0 0 0 0 0 -0 -0 -0 -0 -0 -0 -0 -0 0 0 0 0 0 0 0 0 0 0 0 0 0 0 0 0 0 0 0 0 0 0 0 0 0 0 0 0 0 0 0 0 0 0
0 0 0 0 0 0 -0 -0 -0 -0 -0 -0 0 0 0 0 0 0 -0 0 0 0 0 0 0 0 0 0 0 0 0 0 0 0 0 0 0 0 0 0 0 0 0 0 0 0 0
0 0 0 0 0 0 0 -0 -0 -0 -0 -0 -0 0 0 0 -0 0 0 0 0 0 0 0 0 0 0 0 0 0 0 0 0 0 0 0 0 0 0 0 0 0 0 0 0 0 0
0 0 0 0 0 0 0 0 -0 -0 -0 0 0 0 0 0 -0 -0 0 0 0 0 0 0 0 0 0 0 0 0 0 0 0 0 0 0 0 0 0 0 0 0 0 0 0 0 0
0 0 0 0 0 0 0 0 0 -0 -0 0 0 0 0 0 0 0 0 0 0 0 0 0 0 0 0 0 0 0 0 0 0 0 0 0 0 0 0 0 0 0 0 0 0 0 0
0 0 0 0 0 0 0 0 0 0 0 0 0 0 0 0 0 0 0 0 0 0 0 0 0 0 0 0 0 0 0 0 0 0 0 0 0 0 0 0 0 0 0 0 0 0 0
0 0 0 0 0 0 0 0 0 0 0 -0 0 0 0 0 0 0 0 0 0 0 0 0 0 0 0 0 0 0 0 0 0 0 0 0 0 0 0 0 0 0 0 0 0 0 0
0 0 0 0 0 0 0 0 0 0 0 0 0 0 0 0 0 0 0 0 0 0 0 0 0 0 0 0 0 0 0 0 0 0 0 0 0 0 0 0 0 0 0 0 0 0 0
0 0 0 0 0 0 0 0 0 0 0 0 0 0 0 0 0 0 0 0 0 0 0 0 0 0 0 0 0 0 0 0 0 0 0 0 0 0 0 0 0 0 0 0 0 0 0
0 0 0 0 0 0 0 0 0 0 0 0 0 0 0 0 0 0 0 0 0 0 0 0 0 0 0 0 0 0 0 0 0 0 0 0 0 0 0 0 0 0 0 0 0 0 0
0 0 0 0 0 0 0 0 0 0 0 0 0 0 0 0 0 0 0 0 0 0 0 0 0 0 0 0 0 0 0 0 0 0 0 0 0 0 0 0 0 0 0 0 0 0 0
0 0 0 0 0 0 0 0 0 0 0 0 0 0 0 0 0 0 0 0 0 0 0 0 0 0 0 0 0 0 0 0 0 0 0 0 0 0 0 0 0 0 0 0 0 0 0
0 0 0 0 0 0 0 0 0 0 0 0 0 0 0 0 0 0 0 0 0 0 0 0 0 0 0 0 0 0 0 0 0 0 0 0 0 0 0 0 0 0 0 0 0 0 0
0 0 0 0 0 0 0 0 0 0 0 0 0 0 0 0 0 0 0 0 0 0 0 0 0 0 0 0 0 0 0 0 0 0 0 0 0 0 0 0 0 0 0 0 0 0 0
0 0 0 0 0 0 0 0 0 0 0 0 0 0 0 0 0 0 0 0 0 0 0 0 0 0 0 0 0 0 0 0 0 0 0 0 0 0 0 0 0 0 0 0 0 0 0
0 0 0 0 0 0 0 0 0 0 0 0 0 0 0 0 0 0 0 0 0 0 0 0 0 0 0 0 0 0 0 0 0 0 0 0 0 0 0 0 0 0 0 0 0 0 0
Wind_Speed_500mb
52 54 52 46 39 31 22 15 13 11 13 20 24 24 22 22 21 21 20 20 17 12 12 17 15 13 5 12 19 13 16 15 18 13 8 10 14 14 13 16 14 18 13 9 7 13 16
54 54 55 53 47 38 28 18 14 13 14 20 24 23 21 19 18 17 17 17 15 11 10 16 15 13 11 17 12 11 12 13 7 6 8 5 8 14 14 12 4 9 10 7 4 14 7
54 54 55 54 53 46 36 23 14 13 13 17 21 21 18 15 13 12 12 14 14 10 6 11 15 16 7 12 11 8 10 6 7 4 5 8 10 10 19 20 15 22 18 17 14 9 11
52 53 54 53 52 50 44 32 18 12 12 13 16 15 13 10 9 8 7 10 13 10 3 6 12 16 13 11 10 10 13 11 12 8 14 12 13 16 3 22 16 16 11 15 18 11 7
52 51 51 52 51 49 47 40 26 14 10 11 12 11 8 7 7 5 4 7 12 11 6 2 6 2 19 13 9 8 11 12 10 18 29 20 12 10 14 24 19 16 8 7 15 11 6
51 52 51 49 50 49 47 45 32 20 10 9 10 10 9 8 7 4 4 4 7 8 7 3 4 10 13 11 3 6 10 10 14 20 16 6 6 14 14 16 11 11 12 7 4 9 4
49 51 51 49 47 48 47 45 40 26 15 8 9 10 10 11 9 6 12 9 6 6 2 3 8 8 15 5 9 7 8 8 10 12 10 5 4 10 9 11 10 1 7 7 4 6 3
47 49 51 51 48 45 45 44 41 30 19 10 9 11 14 16 14 12 9 6 8 2 5 4 2 3 7 7 9 11 14 12 7 11 13 12 15 8 7 4 2 7 10 5 5 1 14
44 47 49 49 50 47 43 43 40 34 22 13 11 12 18 17 16 15 16 13 9 4 5 8 5 6 7 7 9 12 7 11 21 21 13 20 15 5 8 7 5 2 12 5 16 3 13
41 44 46 47 48 48 46 40 40 34 23 12 10 16 17 17 8 8 5 8 9 5 11 12 14 9 9 8 8 5 7 2 6 13 15 16 7 4 5 11 18 17 5 14 19 19 17
38 41 44 46 47 48 47 44 37 35 24 14 8 15 13 8 9 2 7 10 8 6 9 11 13 8 10 6 14 6 7 3 9 11 13 11 6 6 9 11 13 11 14 14 18 22 22
36 38 41 44 47 47 48 47 41 34 27 16 5 17 11 7 1 7 14 9 2 12 7 13 10 14 20 9 6 6 5 7 6 5 12 17 6 8 11 3 6 9 15 15 13 12 19
33 36 39 42 45 47 47 47 45 36 31 18 3 17 13 7 3 13 7 7 11 11 8 13 11 12 11 6 8 3 4 6 9 10 15 10 5 7 12 17 11 16 15 8 8 11 11
30 33 36 39 43 45 46 47 46 40 32 17 6 11 14 8 4 9 3 10 10 4 5 8 6 12 8 1 5 3 6 12 4 10 10 11 14 6 9 11 13 9 13 8 10 11 22
28 31 34 37 40 43 45 46 45 42 30 15 8 11 10 2 6 6 11 13 4 7 5 7 14 14 10 7 6 7 4 2 5 8 9 6 6 9 13 10 10 6 2 9 10 15 15
26 29 32 35 38 41 44 44 44 41 30 15 8 6 4 1 5 2 12 5 3 3 1 4 8 5 8 3 7 7 9 4 5 5 8 5 8 3 6 6 11 12 7 8 4 9 18
25 27 30 33 35 38 41 43 43 40 31 16 6 10 7 3 3 9 8 6 10 7 2 5 3 4 1 3 6 5 4 9 1 5 5 2 4 13 8 6 6 11 8 2 8 9 10
24 27 28 30 33 35 38 40 42 41 35 16 1 10 5 3 11 3 6 5 5 12 7 5 4 4 3 2 4 7 6 4 2 3 2 6 5 9 5 5 2 5 5 7 6 6 13
23 25 28 29 30 32 34 36 37 38 37 27 11 6 5 4 7 8 8 9 3 7 3 4 5 2 1 4 6 7 5 7 3 4 5 7 4 6 9 11 14 14 11 15 10 11 21
26 24 25 28 29 30 32 33 33 31 30 22 8 5 3 3 3 6 9 11 11 6 7 6 8 6 8 8 5 6 10 7 2 3 5 5 7 15 13 13 9 10 16 17 17 13 24
29 26 25 27 30 29 29 30 30 27 23 15 9 4 2 1 7 1 5 4 14 11 6 9 8 10 10 7 9 10 8 11 7 9 4 7 12 13 18 18 17 23 26 23 26 27 29
33 30 27 25 27 29 27 27 27 24 18 10 6 7 3 2 4 8 6 12 15 9 12 13 11 12 9 7 9 4 9 9 13 11 10 8 11 11 20 19 22 28 28 27 25 26 30
32 34 32 28 27 27 27 25 26 22 16 9 9 6 4 4 6 10 7 8 8 9 8 3 9 12 11 1 2 2 0 0 5 9 15 8 7 10 13 3 18 24 18 16 13 18 21
42 38 34 33 29 27 27 23 21 20 13 9 9 3 6 6 10 6 5 8 10 16 6 10 13 8 7 12 10 4 4 9 12 13 10 9 13 8 14 12 14 11 4 5 13 18 22
41 43 42 38 34 30 27 25 19 16 12 5 5 3 4 9 9 13 11 10 8 11 9 14 9 8 19 10 8 7 9 9 8 5 17 19 13 8 8 12 25 21 9 6 3 24 33
42 41 39 35 36 34 29 26 24 18 14 9 7 3 3 10 4 4 9 8 11 13 13 10 10 14 12 11 8 13 9 5 9 11 5 13 15 12 7 10 9 11 13 5 5 13 7
39 40 38 37 32 29 31 27 26 23 18 13 11 7 4 11 8 5 9 6 5 10 6 12 14 13 12 11 15 15 15 3 9 11 11 12 12 22 16 13 14 12 16 9 7 9 26
37 40 40 41 36 30 31 31 28 27 22 16 15 14 9 11 16 11 11 12 8 13 13 13 12 12 13 13 10 10 10 8 8 3 8 13 8 9 9 9 14 20 18 9 12 30 34
34 35 41 40 37 33 33 27 28 29 26 21 11 18 16 14 12 14 16 24 23 13 9 14 4 3 7 8 5 4 8 6 9 6 8 10 11 4 12 5 10 28 17 19 26 32 32
Wind_Direction_500mb
47 48 46 44 45 49 58 75 89 99 115 128 131 128 123 122 123 125 127 130 132 116 76 60 74 172 178 118 102 77 62 62 60 45 68 92 127 148 131 131 137 116 116 100 105 92 70
46 45 45 44 44 46 52 66 86 96 114 132 135 131 127 125 124 126 133 140 142 125 81 65 76 120 142 120 101 87 66 46 45 52 68 109 111 114 125 125 335 147 137 128 107 91 100
46 44 44 43 42 44 47 57 80 101 116 137 143 140 137 134 132 133 141 154 160 150 90 68 69 108 123 105 109 77 43 31 88 107 103 100 139 211 150 121 135 153 151 129 84 138 133
45 44 43 41 40 41 43 47 63 100 120 137 152 153 150 143 143 145 152 174 179 173 140 75 63 117 95 137 112 76 62 54 70 138 123 115 114 137 187 124 159 199 240 194 81 152 144
44 43 42 40 38 38 39 41 50 76 122 141 152 163 160 149 151 151 157 170 181 196 201 137 61 138 111 117 99 57 41 43 99 105 117 100 127 119 161 195 177 194 174 168 122 61 161
41 41 40 38 38 35 35 37 42 55 89 143 157 157 151 144 131 121 135 145 152 155 179 230 106 158 138 110 81 61 38 49 148 133 117 161 147 157 169 220 224 150 178 195 242 80 108
38 39 38 36 34 35 34 33 36 45 60 98 151 155 147 129 97 98 124 103 151 153 154 34 93 85 119 107 82 80 44 67 154 195 149 99 198 55 35 18 30 279 262 266 92 90 215
33 34 35 34 31 30 32 31 31 36 47 68 126 144 140 119 100 90 117 95 62 91 153 167 167 128 148 119 139 89 55 65 118 136 151 155 65 78 75 100 213 262 269 229 201 109 279
29 29 30 31 31 28 26 27 28 29 36 59 111 132 138 128 115 92 83 71 36 23 242 135 169 152 143 161 116 75 64 87 66 84 76 67 81 126 102 89 291 321 304 289 298 257 252
21 23 25 26 28 27 24 23 23 23 29 43 116 133 137 130 116 108 57 28 17 5 213 132 167 152 167 149 121 44 31 28 113 96 85 82 93 60 70 63 336 284 19 293 280 274 289
14 16 18 19 22 24 22 19 19 18 19 26 144 150 145 165 138 61 308 327 324 299 199 140 132 151 177 227 124 122 53 23 52 112 253 97 127 0 30 18 336 12 319 296 288 272 289
5 8 10 12 14 17 19 17 14 13 8 9 167 173 158 147 68 314 314 299 239 230 148 145 149 174 174 171 127 130 176 82 118 99 71 123 112 35 20 3 332 309 261 251 262 258 241
359 1 3 5 7 10 13 14 12 11 6 11 89 178 180 169 234 321 307 173 212 263 148 151 158 190 182 149 150 263 237 193 270 234 179 175 118 110 1 303 192 326 310 307 234 207 280
353 356 357 0 1 3 6 10 11 9 9 13 97 160 185 207 323 345 161 222 240 98 146 118 164 168 195 246 148 177 222 217 108 252 279 276 182 5 9 15 334 354 333 311 302 319 315
347 350 352 355 357 359 0 5 7 8 9 13 122 136 140 183 323 345 235 230 76 128 89 159 164 202 153 141 292 220 279 330 39 354 279 278 150 113 55 30 324 59 347 9 300 265 265
339 343 347 351 353 355 356 359 3 6 3 10 158 167 191 288 334 298 237 36 123 57 56 220 231 296 214 127 248 227 193 82 115 20 331 78 271 178 98 236 71 336 96 227 187 297 311
330 335 340 345 349 351 354 356 358 2 5 0 173 222 254 276 348 223 246 94 128 91 87 343 128 150 81 291 284 234 66 110 88 96 51 73 255 135 205 206 321 169 192 312 302 288 293
318 325 331 337 345 348 351 355 356 358 5 9 158 235 278 228 230 261 190 134 134 131 119 106 90 85 273 179 245 231 227 32 76 191 278 62 295 255 344 104 227 281 279 293 280 262 261
304 314 322 329 336 343 348 352 357 359 3 5 334 290 302 181 254 183 141 140 124 170 101 143 122 342 178 197 236 231 177 107 123 205 180 158 212 284 190 171 191 241 224 255 283 285 279
293 301 311 320 326 335 342 348 354 359 360 1 328 249 168 77 63 298 187 181 158 107 111 104 122 154 175 197 204 205 186 147 113 127 129 182 248 249 270 340 320 244 248 255 263 277 275
286 291 300 311 319 326 335 341 346 357 359 4 348 71 348 1 114 333 248 196 193 176 169 179 171 220 199 215 218 221 200 169 170 152 159 244 262 253 266 278 266 274 278 277 265 268 278
284 288 292 299 307 315 324 334 340 352 4 37 1 330 311 221 285 247 176 206 223 167 191 195 238 170 192 248 252 274 216 224 252 184 211 201 267 275 271 259 269 270 270 269 269 277 282
275 285 290 293 298 305 313 326 335 350 21 41 21 11 316 153 198 240 217 227 244 202 193 247 208 182 208 208 266 21 54 309 284 232 205 217 259 258 281 257 284 270 258 249 271 281 288
273 276 282 289 290 294 299 308 323 336 11 50 12 13 277 241 243 250 249 237 228 211 218 161 172 222 122 131 118 131 218 230 225 207 234 221 226 264 280 287 251 76 71 327 279 291 285
265 269 269 273 279 285 287 291 298 309 320 360 357 17 291 270 283 230 225 241 203 178 174 178 148 129 154 169 235 218 188 193 161 218 217 228 235 261 264 280 285 224 212 213 203 285 295
266 269 270 272 268 270 275 275 277 281 287 292 295 291 298 291 176 261 244 233 226 198 170 155 125 150 174 245 235 248 249 251 177 166 151 196 237 243 233 264 277 84 148 144 297 287 130
255 256 263 265 265 269 264 265 265 263 266 267 269 257 271 263 245 214 235 261 216 212 239 159 170 182 197 228 250 253 245 299 224 222 183 182 211 232 242 247 267 124 159 164 247 304 321
260 253 253 256 258 259 265 259 255 254 251 251 257 250 227 260 269 242 228 230 245 237 237 136 177 200 201 239 255 223 253 192 237 223 201 210 204 214 234 248 251 151 163 214 282 305 305
266 259 251 252 253 249 253 259 248 248 244 239 253 253 248 246 272 251 242 233 231 242 257 203 333 145 223 234 233 242 218 189 238 237 195 235 222 256 213 272 116 187 248 276 287 289 299
Wind_Speed_850mb
52 54 52 46 39 31 22 15 13 11 13 20 24 24 22 22 21 21 20 20 17 12 12 17 15 13 5 12 19 13 16 15 18 13 8 10 14 14 13 16 14 18 13 9 7 13 16
54 54 55 53 47 38 28 18 14 13 14 20 24 23 21 19 18 17 17 17 15 11 10 16 15 13 11 17 12 11 12 13 7 6 8 5 8 14 14 12 4 9 10 7 4 14 7
54 54 55 54 53 46 36 23 14 13 13 17 21 21 18 15 13 12 12 14 14 10 6 11 15 16 7 12 11 8 10 6 7 4 5 8 10 10 19 20 15 22 18 17 14 9 11
52 53 54 53 52 50 44 32 18 12 12 13 16 15 13 10 9 8 7 10 13 10 3 6 12 16 13 11 10 10 13 11 12 8 14 12 13 16 3 22 16 16 11 15 18 11 7
52 51 51 52 51 49 47 40 26 14 10 11 12 11 8 7 7 5 4 7 12 11 6 2 6 2 19 13 9 8 11 12 10 18 29 20 12 10 14 24 19 16 8 7 15 11 6
51 52 51 49 50 49 47 45 32 20 10 9 10 10 9 8 7 4 4 4 7 8 7 3 4 10 13 11 3 6 10 10 14 20 16 6 6 14 14 16 11 11 12 7 4 9 4
49 51 51 49 47 48 47 45 40 26 15 8 9 10 10 11 9 6 12 9 6 6 2 3 8 8 15 5 9 7 8 8 10 12 10 5 4 10 9 11 10 1 7 7 4 6 3
47 49 51 51 48 45 45 44 41 30 19 10 9 11 14 16 14 12 9 6 8 2 5 4 2 3 7 7 9 11 14 12 7 11 13 12 15 8 7 4 2 7 10 5 5 1 14
44 47 49 49 50 47 43 43 40 34 22 13 11 12 18 17 16 15 16 13 9 4 5 8 5 6 7 7 9 12 7 11 21 21 13 20 15 5 8 7 5 2 12 5 16 3 13
41 44 46 47 48 48 46 40 40 34 23 12 10 16 17 17 8 8 5 8 9 5 11 12 14 9 9 8 8 5 7 2 6 13 15 16 7 4 5 11 18 17 5 14 19 19 17
38 41 44 46 47 48 47 44 37 35 24 14 8 15 13 8 9 2 7 10 8 6 9 11 13 8 10 6 14 6 7 3 9 11 13 11 6 6 9 11 13 11 14 14 18 22 22
36 38 41 44 47 47 48 47 41 34 27 16 5 17 11 7 1 7 14 9 2 12 7 13 10 14 20 9 6 6 5 7 6 5 12 17 6 8 11 3 6 9 15 15 13 12 19
33 36 39 42 45 47 47 47 45 36 31 18 3 17 13 7 3 13 7 7 11 11 8 13 11 12 11 6 8 3 4 6 9 10 15 10 5 7 12 17 11 16 15 8 8 11 11
30 33 36 39 43 45 46 47 46 40 32 17 6 11 14 8 4 9 3 10 10 4 5 8 6 12 8 1 5 3 6 12 4 10 10 11 14 6 9 11 13 9 13 8 10 11 22
28 31 34 37 40 43 45 46 45 42 30 15 8 11 10 2 6 6 11 13 4 7 5 7 14 14 10 7 6 7 4 2 5 8 9 6 6 9 13 10 10 6 2 9 10 15 15
26 29 32 35 38 41 44 44 44 41 30 15 8 6 4 1 5 2 12 5 3 3 1 4 8 5 8 3 7 7 9 4 5 5 8 5 8 3 6 6 11 12 7 8 4 9 18
25 27 30 33 35 38 41 43 43 40 31 16 6 10 7 3 3 9 8 6 10 7 2 5 3 4 1 3 6 5 4 9 1 5 5 2 4 13 8 6 6 11 8 2 8 9 10
24 27 28 30 33 35 38 40 42 41 35 16 1 10 5 3 11 3 6 5 5 12 7 5 4 4 3 2 4 7 6 4 2 3 2 6 5 9 5 5 2 5 5 7 6 6 13
23 25 28 29 30 32 34 36 37 38 37 27 11 6 5 4 7 8 8 9 3 7 3 4 5 2 1 4 6 7 5 7 3 4 5 7 4 6 9 11 14 14 11 15 10 11 21
26 24 25 28 29 30 32 33 33 31 30 22 8 5 3 3 3 6 9 11 11 6 7 6 8 6 8 8 5 6 10 7 2 3 5 5 7 15 13 13 9 10 16 17 17 13 24
29 26 25 27 30 29 29 30 30 27 23 15 9 4 2 1 7 1 5 4 14 11 6 9 8 10 10 7 9 10 8 11 7 9 4 7 12 13 18 18 17 23 26 23 26 27 29
33 30 27 25 27 29 27 27 27 24 18 10 6 7 3 2 4 8 6 12 15 9 12 13 11 12 9 7 9 4 9 9 13 11 10 8 11 11 20 19 22 28 28 27 25 26 30
32 34 32 28 27 27 27 25 26 22 16 9 9 6 4 4 6 10 7 8 8 9 8 3 9 12 11 1 2 2 0 0 5 9 15 8 7 10 13 3 18 24 18 16 13 18 21
42 38 34 33 29 27 27 23 21 20 13 9 9 3 6 6 10 6 5 8 10 16 6 10 13 8 7 12 10 4 4 9 12 13 10 9 13 8 14 12 14 11 4 5 13 18 22
41 43 42 38 34 30 27 25 19 16 12 5 5 3 4 9 9 13 11 10 8 11 9 14 9 8 19 10 8 7 9 9 8 5 17 19 13 8 8 12 25 21 9 6 3 24 33
42 41 39 35 36 34 29 26 24 18 14 9 7 3 3 10 4 4 9 8 11 13 13 10 10 14 12 11 8 13 9 5 9 11 5 13 15 12 7 10 9 11 13 5 5 13 7
39 40 38 37 32 29 31 27 26 23 18 13 11 7 4 11 8 5 9 6 5 10 6 12 14 13 12 11 15 15 15 3 9 11 11 12 12 22 16 13 14 12 16 9 7 9 26
37 40 40 41 36 30 31 31 28 27 22 16 15 14 9 11 16 11 11 12 8 13 13 13 12 12 13 13 10 10 10 8 8 3 8 13 8 9 9 9 14 20 18 9 12 30 34
34 35 41 40 37 33 33 27 28 29 26 21 11 18 16 14 12 14 16 24 23 13 9 14 4 3 7 8 5 4 8 6 9 6 8 10 11 4 12 5 10 28 17 19 26 32 32
Wind_Direction_850mb
47 48 46 44 45 49 58 75 89 99 115 128 131 128 123 122 123 125 127 130 132 116 76 60 74 172 178 118 102 77 62 62 60 45 68 92 127 148 131 131 137 116 116 100 105 92 70
46 45 45 44 44 46 52 66 86 96 114 132 135 131 127 125 124 126 133 140 142 125 81 65 76 120 142 120 101 87 66 46 45 52 68 109 111 114 125 125 335 147 137 128 107 91 100
46 44 44 43 42 44 47 57 80 101 116 137 143 140 137 134 132 133 141 154 160 150 90 68 69 108 123 105 109 77 43 31 88 107 103 100 139 211 150 121 135 153 151 129 84 138 133
45 44 43 41 40 41 43 47 63 100 120 137 152 153 150 143 143 145 152 174 179 173 140 75 63 117 95 137 112 76 62 54 70 138 123 115 114 137 187 124 159 199 240 194 81 152 144
44 43 42 40 38 38 39 41 50 76 122 141 152 163 160 149 151 151 157 170 181 196 201 137 61 138 111 117 99 57 41 43 99 105 117 100 127 119 161 195 177 194 174 168 122 61 161
41 41 40 38 38 35 35 37 42 55 89 143 157 157 151 144 131 121 135 145 152 155 179 230 106 158 138 110 81 61 38 49 148 133 117 161 147 157 169 220 224 150 178 195 242 80 108
38 39 38 36 34 35 34 33 36 45 60 98 151 155 147 129 97 98 124 103 151 153 154 34 93 85 119 107 82 80 44 67 154 195 149 99 198 55 35 18 30 279 262 266 92 90 215
33 34 35 34 31 30 32 31 31 36 47 68 126 144 140 119 100 90 117 95 62 91 153 167 167 128 148 119 139 89 55 65 118 136 151 155 65 78 75 100 213 262 269 229 201 109 279
29 29 30 31 31 28 26 27 28 29 36 59 111 132 138 128 115 92 83 71 36 23 242 135 169 152 143 161 116 75 64 87 66 84 76 67 81 126 102 89 291 321 304 289 298 257 252
21 23 25 26 28 27 24 23 23 23 29 43 116 133 137 130 116 108 57 28 17 5 213 132 167 152 167 149 121 44 31 28 113 96 85 82 93 60 70 63 336 284 19 293 280 274 289
14 16 18 19 22 24 22 19 19 18 19 26 144 150 145 165 138 61 308 327 324 299 199 140 132 151 177 227 124 122 53 23 52 112 253 97 127 0 30 18 336 12 319 296 288 272 289
5 8 10 12 14 17 19 17 14 13 8 9 167 173 158 147 68 314 314 299 239 230 148 145 149 174 174 171 127 130 176 82 118 99 71 123 112 35 20 3 332 309 261 251 262 258 241
359 1 3 5 7 10 13 14 12 11 6 11 89 178 180 169 234 321 307 173 212 263 148 151 158 190 182 149 150 263 237 193 270 234 179 175 118 110 1 303 192 326 310 307 234 207 280
353 356 357 0 1 3 6 10 11 9 9 13 97 160 185 207 323 345 161 222 240 98 146 118 164 168 195 246 148 177 222 217 108 252 279 276 182 5 9 15 334 354 333 311 302 319 315
347 350 352 355 357 359 0 5 7 8 9 13 122 136 140 183 323 345 235 230 76 128 89 159 164 202 153 141 292 220 279 330 39 354 279 278 150 113 55 30 324 59 347 9 300 265 265
339 343 347 351 353 355 356 359 3 6 3 10 158 167 191 288 334 298 237 36 123 57 56 220 231 296 214 127 248 227 193 82 115 20 331 78 271 178 98 236 71 336 96 227 187 297 311
330 335 340 345 349 351 354 356 358 2 5 0 173 222 254 276 348 223 246 94 128 91 87 343 128 150 81 291 284 234 66 110 88 96 51 73 255 135 205 206 321 169 192 312 302 288 293
318 325 331 337 345 348 351 355 356 358 5 9 158 235 278 228 230 261 190 134 134 131 119 106 90 85 273 179 245 231 227 32 76 191 278 62 295 255 344 104 227 281 279 293 280 262 261
304 314 322 329 336 343 348 352 357 359 3 5 334 290 302 181 254 183 141 140 124 170 101 143 122 342 178 197 236 231 177 107 123 205 180 158 212 284 190 171 191 241 224 255 283 285 279
293 301 311 320 326 335 342 348 354 359 360 1 328 249 168 77 63 298 187 181 158 107 111 104 122 154 175 197 204 205 186 147 113 127 129 182 248 249 270 340 320 244 248 255 263 277 275
286 291 300 311 319 326 335 341 346 357 359 4 348 71 348 1 114 333 248 196 193 176 169 179 171 220 199 215 218 221 200 169 170 152 159 244 262 253 266 278 266 274 278 277 265 268 278
284 288 292 299 307 315 324 334 340 352 4 37 1 330 311 221 285 247 176 206 223 167 191 195 238 170 192 248 252 274 216 224 252 184 211 201 267 275 271 259 269 270 270 269 269 277 282
275 285 290 293 298 305 313 326 335 350 21 41 21 11 316 153 198 240 217 227 244 202 193 247 208 182 208 208 266 21 54 309 284 232 205 217 259 258 281 257 284 270 258 249 271 281 288
273 276 282 289 290 294 299 308 323 336 11 50 12 13 277 241 243 250 249 237 228 211 218 161 172 222 122 131 118 131 218 230 225 207 234 221 226 264 280 287 251 76 71 327 279 291 285
265 269 269 273 279 285 287 291 298 309 320 360 357 17 291 270 283 230 225 241 203 178 174 178 148 129 154 169 235 218 188 193 161 218 217 228 235 261 264 280 285 224 212 213 203 285 295
266 269 270 272 268 270 275 275 277 281 287 292 295 291 298 291 176 261 244 233 226 198 170 155 125 150 174 245 235 248 249 251 177 166 151 196 237 243 233 264 277 84 148 144 297 287 130
255 256 263 265 265 269 264 265 265 263 266 267 269 257 271 263 245 214 235 261 216 212 239 159 170 182 197 228 250 253 245 299 224 222 183 182 211 232 242 247 267 124 159 164 247 304 321
260 253 253 256 258 259 265 259 255 254 251 251 257 250 227 260 269 242 228 230 245 237 237 136 177 200 201 239 255 223 253 192 237 223 201 210 204 214 234 248 251 151 163 214 282 305 305
266 259 251 252 253 249 253 259 248 248 244 239 253 253 248 246 272 251 242 233 231 242 257 203 333 145 223 234 233 242 218 189 238 237 195 235 222 256 213 272 116 187 248 276 287 289 299